• en Suisse
  • Liste des pays
  • À 7 jours
  • Température de l'eau
  • Carte satellitaire
  • Carte météo
  • Widgets météo
  • user-avatar
    Se connecter

    Météo par heure à Krasnodvorsk

    Ce jour, 25 Mai, Vendredi

    Heure Température Précipitation Vent Pression Humidité
    00:00 +19°C° 0,1 mm 2 m/s 758 mmHg 89%
    01:00 +19°C° 0 mm 2 m/s 758 mmHg 89%
    02:00 +19°C° 0 mm 2 m/s 758 mmHg 90%
    03:00 +19°C° 0 mm 2 m/s 757 mmHg 90%
    04:00 +19°C° 0,4 mm 2 m/s 757 mmHg 90%
    05:00 +19°C° 0,4 mm 2 m/s 757 mmHg 90%
    06:00 +20°C° 0,4 mm 2 m/s 757 mmHg 89%
    07:00 +21°C° 0 mm 2 m/s 757 mmHg 84%
    08:00 +24°C° 0 mm 2 m/s 757 mmHg 79%
    09:00 +25°C° 0 mm 2 m/s 757 mmHg 73%
    10:00 +26°C° 0,1 mm 2 m/s 757 mmHg 70%
    11:00 +27°C° 0,1 mm 2 m/s 757 mmHg 66%
    12:00 +28°C° 0,1 mm 3 m/s 757 mmHg 62%
    13:00 +28°C° 0,5 mm 3 m/s 757 mmHg 62%
    14:00 +28°C° 0,5 mm 3 m/s 757 mmHg 62%
    15:00 +28°C° 0,5 mm 4 m/s 757 mmHg 62%
    16:00 +28°C° 0,3 mm 3 m/s 757 mmHg 65%
    17:00 +27°C° 0,3 mm 3 m/s 757 mmHg 68%
    18:00 +27°C° 0,3 mm 3 m/s 757 mmHg 71%
    19:00 +25°C° 0,1 mm 3 m/s 757 mmHg 76%
    20:00 +24°C° 0,1 mm 3 m/s 757 mmHg 80%
    21:00 +21°C° 0,1 mm 3 m/s 757 mmHg 85%
    22:00 +21°C° 0 mm 3 m/s 758 mmHg 87%
    23:00 +20°C° 0 mm 3 m/s 758 mmHg 89%

    Demain, 26 Mai, Samedi

    Heure Température Précipitation Vent Pression Humidité
    00:00 +20°C° 0 mm 3 m/s 758 mmHg 92%
    01:00 +19°C° 0 mm 4 m/s 758 mmHg 92%
    02:00 +19°C° 0 mm 5 m/s 759 mmHg 91%
    03:00 +19°C° 0 mm 6 m/s 759 mmHg 91%
    04:00 +17°C° 0 mm 7 m/s 760 mmHg 87%
    05:00 +17°C° 0 mm 8 m/s 760 mmHg 84%
    06:00 +16°C° 0 mm 9 m/s 761 mmHg 80%
    07:00 +16°C° 0 mm 9 m/s 762 mmHg 76%
    08:00 +16°C° 0 mm 9 m/s 763 mmHg 72%
    09:00 +16°C° 0 mm 9 m/s 764 mmHg 68%
    10:00 +17°C° 0 mm 9 m/s 764 mmHg 64%
    11:00 +17°C° 0 mm 10 m/s 764 mmHg 60%
    12:00 +18°C° 0 mm 10 m/s 765 mmHg 56%
    13:00 +18°C° 0 mm 10 m/s 765 mmHg 54%
    14:00 +19°C° 0 mm 10 m/s 766 mmHg 52%
    15:00 +19°C° 0 mm 9 m/s 766 mmHg 51%
    16:00 +18°C° 0 mm 9 m/s 766 mmHg 52%
    17:00 +18°C° 0 mm 8 m/s 766 mmHg 54%
    18:00 +17°C° 0 mm 7 m/s 767 mmHg 56%
    19:00 +16°C° 0 mm 7 m/s 767 mmHg 55%
    20:00 +15°C° 0 mm 7 m/s 768 mmHg 54%
    21:00 +14°C° 0 mm 7 m/s 768 mmHg 53%
    22:00 +14°C° 0 mm 7 m/s 769 mmHg 53%
    23:00 +12°C° 0 mm 7 m/s 769 mmHg 53%

    Après-demain, 27 Mai, Dimanche

    Heure Température Précipitation Vent Pression Humidité
    00:00 +12°C° 0 mm 7 m/s 769 mmHg 53%
    01:00 +11°C° 0 mm 7 m/s 769 mmHg 54%
    02:00 +11°C° 0 mm 7 m/s 769 mmHg 54%
    03:00 +10°C° 0 mm 7 m/s 769 mmHg 55%
    04:00 +10°C° 0 mm 7 m/s 769 mmHg 57%
    05:00 +10°C° 0 mm 7 m/s 770 mmHg 60%
    06:00 +10°C° 0 mm 7 m/s 770 mmHg 62%
    07:00 +11°C° 0 mm 7 m/s 770 mmHg 60%
    08:00 +12°C° 0 mm 8 m/s 770 mmHg 57%
    09:00 +15°C° 0 mm 8 m/s 770 mmHg 55%
    10:00 +16°C° 0 mm 8 m/s 770 mmHg 53%
    11:00 +17°C° 0 mm 8 m/s 769 mmHg 50%
    12:00 +18°C° 0 mm 8 m/s 769 mmHg 48%
    13:00 +20°C° 0 mm 8 m/s 769 mmHg 48%
    14:00 +20°C° 0 mm 8 m/s 768 mmHg 48%
    15:00 +21°C° 0 mm 7 m/s 768 mmHg 47%
    16:00 +20°C° 0 mm 7 m/s 768 mmHg 50%
    17:00 +20°C° 0 mm 6 m/s 767 mmHg 54%
    18:00 +20°C° 0 mm 5 m/s 767 mmHg 57%
    19:00 +17°C° 0 mm 5 m/s 767 mmHg 58%
    20:00 +16°C° 0 mm 5 m/s 767 mmHg 59%
    21:00 +14°C° 0 mm 5 m/s 767 mmHg 60%
    22:00 +14°C° 0 mm 5 m/s 767 mmHg 59%
    23:00 +14°C° 0 mm 5 m/s 767 mmHg 57%

    28 Mai, Lundi

    Heure Température Précipitation Vent Pression Humidité
    00:00 +13°C° 0 mm 5 m/s 767 mmHg 55%
    01:00 +13°C° 0 mm 5 m/s 767 mmHg 56%
    02:00 +12°C° 0 mm 4 m/s 767 mmHg 56%
    03:00 +12°C° 0 mm 4 m/s 767 mmHg 57%
    04:00 +11°C° 0 mm 4 m/s 767 mmHg 59%
    05:00 +11°C° 0 mm 4 m/s 767 mmHg 62%
    06:00 +11°C° 0 mm 4 m/s 767 mmHg 65%
    07:00 +13°C° 0 mm 5 m/s 767 mmHg 61%
    08:00 +15°C° 0 mm 5 m/s 767 mmHg 57%
    09:00 +17°C° 0 mm 6 m/s 767 mmHg 53%
    10:00 +20°C° 0 mm 6 m/s 767 mmHg 50%
    11:00 +21°C° 0 mm 6 m/s 767 mmHg 47%
    12:00 +22°C° 0 mm 6 m/s 767 mmHg 44%
    13:00 +23°C° 0 mm 6 m/s 767 mmHg 44%
    14:00 +23°C° 0 mm 6 m/s 766 mmHg 44%
    15:00 +24°C° 0 mm 6 m/s 766 mmHg 43%
    16:00 +25°C° 0 mm 5 m/s 766 mmHg 48%
    17:00 +23°C° 0 mm 4 m/s 766 mmHg 52%
    18:00 +23°C° 0 mm 4 m/s 766 mmHg 57%
    19:00 +21°C° 0 mm 4 m/s 767 mmHg 60%
    20:00 +19°C° 0 mm 3 m/s 767 mmHg 63%
    21:00 +18°C° 0 mm 3 m/s 767 mmHg 66%
    22:00 +17°C° 0 mm 4 m/s 767 mmHg 65%
    23:00 +16°C° 0 mm 5 m/s 767 mmHg 64%

    29 Mai, Mardi

    Heure Température Précipitation Vent Pression Humidité
    00:00 +16°C° 0 mm 6 m/s 768 mmHg 63%
    01:00 +15°C° 0 mm 6 m/s 768 mmHg 61%
    02:00 +15°C° 0 mm 6 m/s 768 mmHg 59%
    03:00 +14°C° 0 mm 6 m/s 768 mmHg 57%
    04:00 +14°C° 0 mm 6 m/s 768 mmHg 60%
    05:00 +13°C° 0 mm 6 m/s 768 mmHg 63%
    06:00 +13°C° 0 mm 6 m/s 769 mmHg 66%
    07:00 +14°C° 0 mm 6 m/s 769 mmHg 62%
    08:00 +16°C° 0 mm 7 m/s 769 mmHg 59%
    09:00 +17°C° 0 mm 7 m/s 769 mmHg 55%
    10:00 +18°C° 0 mm 7 m/s 769 mmHg 53%
    11:00 +20°C° 0 mm 7 m/s 768 mmHg 50%
    12:00 +21°C° 0 mm 8 m/s 768 mmHg 48%
    13:00 +22°C° 0 mm 8 m/s 768 mmHg 48%
    14:00 +22°C° 0 mm 8 m/s 767 mmHg 47%
    15:00 +22°C° 0 mm 8 m/s 767 mmHg 47%
    16:00 +22°C° 0 mm 7 m/s 767 mmHg 49%
    17:00 +21°C° 0 mm 6 m/s 767 mmHg 52%
    18:00 +21°C° 0 mm 6 m/s 767 mmHg 54%
    19:00 +19°C° 0 mm 5 m/s 767 mmHg 55%
    20:00 +17°C° 0 mm 5 m/s 767 mmHg 55%
    21:00 +16°C° 0 mm 5 m/s 767 mmHg 55%
    22:00 +15°C° 0 mm 5 m/s 767 mmHg 54%
    23:00 +15°C° 0 mm 5 m/s 767 mmHg 54%

    30 Mai, Mercredi

    Heure Température Précipitation Vent Pression Humidité
    00:00 +14°C° 0 mm 5 m/s 766 mmHg 53%
    01:00 +14°C° 0 mm 5 m/s 766 mmHg 54%
    02:00 +13°C° 0 mm 5 m/s 766 mmHg 54%
    03:00 +13°C° 0 mm 5 m/s 766 mmHg 55%
    04:00 +13°C° 0 mm 5 m/s 766 mmHg 58%
    05:00 +13°C° 0 mm 5 m/s 766 mmHg 61%
    06:00 +13°C° 0 mm 5 m/s 766 mmHg 64%
    07:00 +15°C° 0 mm 5 m/s 766 mmHg 58%
    08:00 +17°C° 0 mm 6 m/s 766 mmHg 52%
    09:00 +20°C° 0 mm 6 m/s 765 mmHg 47%
    10:00 +21°C° 0 mm 6 m/s 765 mmHg 45%
    11:00 +22°C° 0 mm 6 m/s 765 mmHg 44%
    12:00 +23°C° 0 mm 6 m/s 764 mmHg 42%
    13:00 +24°C° 0 mm 6 m/s 764 mmHg 42%
    14:00 +24°C° 0 mm 6 m/s 763 mmHg 42%
    15:00 +26°C° 0 mm 6 m/s 763 mmHg 42%
    16:00 +26°C° 0 mm 5 m/s 762 mmHg 46%
    17:00 +25°C° 0 mm 4 m/s 762 mmHg 50%
    18:00 +25°C° 0 mm 3 m/s 762 mmHg 54%
    19:00 +22°C° 0 mm 3 m/s 762 mmHg 56%
    20:00 +20°C° 0 mm 3 m/s 762 mmHg 58%
    21:00 +18°C° 0 mm 3 m/s 762 mmHg 60%
    22:00 +18°C° 0 mm 3 m/s 761 mmHg 61%
    23:00 +17°C° 0 mm 3 m/s 761 mmHg 61%
    Voir plus